Lander, WY

6:38 PM MST on January 16, 2018 (GMT -0700)
Hunt

Weather History for KLND - June, 2013

Change the Weather History Date:

Thursday, June 20, 2013

  Actual Average Record
Temperature  
Mean Temperature 62 °F 64 °F  
Max Temperature 78 °F 79 °F 95 °F (1936)
Min Temperature 45 °F 50 °F 31 °F (1906)
Degree Days  
Heating Degree Days 3 3  
Month to date heating degree days 51 105  
Since 1 June heating degree days 51 105  
Since 1 July heating degree days 7425 7727  
Cooling Degree Days 0 3  
Month to date cooling degree days 48 30  
Year to date cooling degree days 57 35  
Since 1 June cooling degree days 48 30  
Growing Degree Days 12 (Base 50)    
Moisture  
Dew Point 20 °F    
Average Humidity 25    
Maximum Humidity 40    
Minimum Humidity 10    
Precipitation  
Precipitation 0.00 in 0.03 in 1.27 in (1947)
Month to date precipitation T 1.01  
Year to date precipitation 7.52 7.23  
Snow  
Snow 0.00 in 0.00 in - ()
Month to date snowfall 0.0 0.1  
Since 1 June snowfall 0.0 0.1  
Since 1 July snowfall 111.1 91.4  
Snow Depth 0.00 in    
Sea Level Pressure  
Sea Level Pressure 29.76 in    
Wind  
Wind Speed 9 mph (South)    
Max Wind Speed 25 mph    
Max Gust Speed 32 mph    
Visibility 10 miles    
Events      
T = Trace of Precipitation, MM = Missing Value Source: NWS Daily Summary

Daily Weather History Graph

Daily Weather History Graph

Search for Another Location

Airport or City:

Trip Planner

Search our weather history database for the weather conditions in past years. The results will help you decide how hot, cold, wet, or windy it might be!

Date:

Astronomy

Jun. 20, 2013 Rise Set
Actual Time 5:36 AM MDT 8:56 PM MDT
Civil Twilight 5:01 AM MDT 9:32 PM MDT
Nautical Twilight 4:15 AM MDT 10:17 PM MDT
Astronomical Twilight 3:18 AM MDT 11:14 PM MDT
Moon 6:00 PM MDT (6/20) 3:08 AM MDT (6/20)
Length of Visible Light 16h 30m
Length of Day
15h 20m
Waxing Gibbous, 89% of the Moon is Illuminated
Jun 20
Waxing Gibbous
Jun 23
Full
Jun 29
Last Quarter
Jul 8
New
Jul 15
First Quarter

Hourly Weather History & Observations

Time (MDT) Temp. Windchill Dew Point Humidity Pressure Visibility Wind Dir Wind Speed Gust Speed Precip Events Conditions
12:53 AM 61.0 °F - 8.1 °F 12% 29.63 in 10.0 mi West 8.1 mph - N/A   Clear
1:53 AM 55.0 °F - 21.0 °F 27% 29.66 in 10.0 mi NW 8.1 mph - N/A   Clear
2:53 AM 50.0 °F - 21.9 °F 33% 29.71 in 10.0 mi Variable 3.5 mph - N/A   Clear
3:53 AM 48.0 °F - 21.9 °F 36% 29.74 in 10.0 mi SE 6.9 mph - N/A   Clear
4:53 AM 46.0 °F 43.1 °F 21.0 °F 37% 29.77 in 10.0 mi East 5.8 mph - N/A   Clear
5:53 AM 45.0 °F 39.3 °F 21.0 °F 39% 29.80 in 10.0 mi SW 11.5 mph - N/A   Clear
6:53 AM 50.0 °F - 21.9 °F 33% 29.81 in 10.0 mi ESE 4.6 mph - N/A   Clear
7:53 AM 53.1 °F - 25.0 °F 34% 29.82 in 10.0 mi ESE 11.5 mph - N/A   Clear
8:53 AM 57.9 °F - 21.9 °F 25% 29.81 in 10.0 mi ESE 8.1 mph - N/A   Clear
9:53 AM 62.1 °F - 19.0 °F 19% 29.79 in 10.0 mi Variable 4.6 mph - N/A   Clear
10:53 AM 66.0 °F - 19.9 °F 17% 29.77 in 10.0 mi East 4.6 mph - N/A   Clear
11:53 AM 69.1 °F - 17.1 °F 14% 29.76 in 10.0 mi ENE 8.1 mph - N/A   Clear
12:53 PM 72.0 °F - 19.0 °F 13% 29.74 in 10.0 mi NE 10.4 mph - N/A   Clear
1:50 PM 75.2 °F - 15.8 °F 11% 29.90 in 10.0 mi Variable 4.6 mph 27.6 mph N/A   Clear
1:53 PM 75.9 °F - 16.0 °F 10% 29.72 in 10.0 mi Variable 6.9 mph 17.3 mph N/A   Clear
2:53 PM 78.1 °F - 17.1 °F 10% 29.74 in 10.0 mi WSW 15.0 mph 25.3 mph N/A   Clear
3:53 PM 77.0 °F - 19.0 °F 11% 29.75 in 10.0 mi SW 16.1 mph 25.3 mph N/A   Clear
4:53 PM 75.9 °F - 17.1 °F 11% 29.75 in 10.0 mi SW 18.4 mph 32.2 mph N/A   Clear
5:53 PM 75.0 °F - 19.9 °F 13% 29.76 in 10.0 mi SSW 10.4 mph 18.4 mph N/A   Clear
6:53 PM 73.9 °F - 21.9 °F 14% 29.73 in 10.0 mi SW 5.8 mph - N/A   Clear
7:53 PM 71.1 °F - 26.1 °F 19% 29.73 in 10.0 mi WSW 5.8 mph - N/A   Clear
8:53 PM 66.0 °F - 21.9 °F 19% 29.74 in 10.0 mi SW 10.4 mph - N/A   Clear
9:53 PM 61.0 °F - 23.0 °F 23% 29.77 in 10.0 mi West 11.5 mph - N/A   Clear
10:53 PM 62.1 °F - 23.0 °F 22% 29.77 in 10.0 mi Variable 5.8 mph - N/A   Clear
11:53 PM 61.0 °F - 21.9 °F 22% 29.78 in 10.0 mi ENE 5.8 mph - N/A   Clear